sat.trackr.live / text

‹ back to catalog

SAUDICOMSAT 6

NORAD 31121 · 2007-012E

PAYLOAD ACTIVE UNKNOWN

§ Identity

Operator
Country
SAUD
Launch date
2007-04-17
Launch site
TYMSC
Launch vehicle
Mass (kg)
RCS (m²)
0.07

External: N2YO · Heavens-Above · Gunter

§ Orbital elements

Epoch: 2026-05-25T04:07:05.217024Z

Period
98.46 min
Inclination
98.4084°
Eccentricity
0.0072699
Mean motion
14.62522088 rev/d
Perigee alt
633.7 km
Apogee alt
736.4 km
Semi-major
7,063.2 km
B*
1.2551e-4
RAAN
112.2629°
Arg perigee
39.3065°
Mean anomaly
321.3382°
Rev number
1,682

§ Raw data

SAUDICOMSAT 61 31121U 07012E   26145.17158816  .00000608  00000+0  12551-3 0  99932 31121  98.4084 112.2629 0072699  39.3065 321.3382 14.62522088 16822

JSON: /api/v1/satellites/31121 · /tle

For live sub-satellite position, see the globe view (requires WebGL).

§ Visibility from observer

Set your observer location to see the next 7 days of passes ≥ 10°. The values pass through the URL so the page stays shareable.

No JS? Fill the form by hand. The geolocation button needs JavaScript.